Regional Weather Roundup
Issued by NWS

Home | Current Version | Previous Version | Text Only | Print | Product List | Glossary On
Versions: 1 2 3 4 5 6 7 8 9 10 11 12 13 14 15 16 17 18 19 20 21 22 23 24 25 26 27 28 29 30 31 32 33 34 35 36 37 38 39 40 41 42 43 44 45 46 47 48 49 50
000
ASUS44 KBMX 211810
RWRAL

ALABAMA REGIONAL WEATHER ROUNDUP
NATIONAL WEATHER SERVICE BIRMINGHAM AL
100 PM CDT THU SEP 21 2017

NOTE: "FAIR" INDICATES FEW OR NO CLOUDS BELOW 12,000 FEET
WITH NO SIGNIFICANT WEATHER AND/OR OBSTRUCTIONS TO VISIBILITY.

THE REMARK "TC" DENOTES TEMPERATURE IN DEGREES CELSIUS.

ALZ001>011-014-016>018-020-211900-
NORTH ALABAMA

CITY           SKY/WX    TMP DP  RH WIND       PRES   REMARKS
MUSCLE SHOALS  PTSUNNY   88  73  61 NW5       30.07F HX  95
6HR MIN TEMP:  67; 6HR MAX TEMP:  90;

HUNTSVILLE     CLOUDY    86  75  69 E6        30.07F HX  95
6HR MIN TEMP:  70; 6HR MAX TEMP:  86;

DECATUR        MOSUNNY   84  74  71 NE10      30.07F HX  91
6HR MIN TEMP:  67; 6HR MAX TEMP:  87;

HALEYVILLE     FAIR      90  70  51 VRB3      30.09F HX  95
6HR MIN TEMP:  66; 6HR MAX TEMP:  90;

GADSDEN        LGT RAIN  80  74  81 N7        30.08R
6HR MIN TEMP:  65; 6HR MAX TEMP:  87; 6HR PCP: TRACE;

$$

ALZ012-013-022-023-030>036-040>044-211900-
WEST CENTRAL ALABAMA

CITY           SKY/WX    TMP DP  RH WIND       PRES   REMARKS
TUSCALOOSA     MOSUNNY   90  72  55 E5        30.04F HX  97
6HR MIN TEMP:  69; 6HR MAX TEMP:  91;

DEMOPOLIS        N/A     89  69  51 NE3       30.04F HX  92
$$

ALZ015-024>026-033>036-041>044-211900-
CENTRAL ALABAMA

CITY           SKY/WX    TMP DP  RH WIND       PRES   REMARKS
BIRMINGHAM     MOSUNNY   89  67  47 N6        30.08F HX  92
6HR MIN TEMP:  69; 6HR MAX TEMP:  90;

MONTGOMERY     SUNNY     92  67  43 CALM      30.03F HX  95
6HR MIN TEMP:  72; 6HR MAX TEMP:  92;

SHELBY CO ARPT MOSUNNY   88  71  57 VRB3      30.06F HX  94
6HR MIN TEMP:  69; 6HR MAX TEMP:  89;

MAXWELL AFB    SUNNY     89  69  52 NE3       30.03F HX  93
6HR MIN TEMP:  70; 6HR MAX TEMP:  90;

GREENVILLE     FAIR      91  68  46 NW6       30.03F HX  95
6HR MIN TEMP:  71; 6HR MAX TEMP:  91;

SELMA          FAIR      90  68  48 VRB3      30.03F HX  93
PRATTVILLE     FAIR      89  69  52 E7        30.03F HX  93
6HR MIN TEMP:  66; 6HR MAX TEMP:  89;

BESSEMER       FAIR      86  70  58 N3        30.07F HX  90
6HR MIN TEMP:  67; 6HR MAX TEMP:  87;

TALLADEGA      FAIR     N/A N/A N/A MISG      30.06F
PELL CITY      CLEAR     88  73  62 NE6       30.06F HX  96
MARION         FAIR      89  68  49 E6        30.03F HX  93
6HR MIN TEMP:  68; 6HR MAX TEMP:  89;

SYLACAUGA      FAIR      89  72  57 CALM      30.06F HX  95
6HR MIN TEMP:  65; 6HR MAX TEMP:  89;

$$

ALZ019-021-028-029-037-038-045>048-211900-
EAST CENTRAL ALABAMA

CITY           SKY/WX    TMP DP  RH WIND       PRES   REMARKS
ANNISTON       SUNNY     87  72  60 SE5       30.05F HX  93
6HR MIN TEMP:  66; 6HR MAX TEMP:  88;

ALEXANDER CITY MOSUNNY   87  70  56 E3        30.06F HX  91
6HR MIN TEMP:  68; 6HR MAX TEMP:  87;

AUBURN         NOT AVBL
$$

ALZ051>064-211900-
SOUTHWEST ALABAMA

CITY           SKY/WX    TMP DP  RH WIND       PRES   REMARKS
MOBILE         PTSUNNY   90  72  55 NE10      30.03F HX  97
6HR MIN TEMP:  71; 6HR MAX TEMP:  90;

BROOKLEY FIELD MOSUNNY   89  74  60 VRB3      30.02F HX  98
6HR MIN TEMP:  72; 6HR MAX TEMP:  90;

EVERGREEN      PTSUNNY   88  70  55 N5        30.03F HX  93
6HR MIN TEMP:  68; 6HR MAX TEMP:  91;

$$

ALZ049-050-065>069-211900-
SOUTHEAST ALABAMA

CITY           SKY/WX    TMP DP  RH WIND       PRES   REMARKS
DOTHAN         PTSUNNY   89  72  56 N7        30.04F HX  96
6HR MIN TEMP:  73; 6HR MAX TEMP:  90;

OZARK          MOSUNNY   89  72  56 NE6       30.00F HX  96
6HR MIN TEMP:  74; 6HR MAX TEMP:  89;

TROY           MOSUNNY   87  71  58 NE6       30.03F HX  93
6HR MIN TEMP:  70; 6HR MAX TEMP:  89;

EUFAULA        FAIR      92  72  51 CALM      30.01F HX  99
6HR MIN TEMP:  71; 6HR MAX TEMP:  93;

$$



USA.gov is the U.S. government's official web portal to all federal, state and local government web resources and services.